Weather Roundup
Issued by NWS Springfield, MO

Home | Current Version | Previous Version | Text Only | Print | Product List | Glossary On
Versions: 1 2 3 4 5 6 7 8 9 10 11 12 13 14 15 16 17 18 19 20 21 22 23 24 25 26 27 28 29 30 31 32 33 34 35 36 37 38 39 40 41 42 43 44 45 46 47 48 49 50
000
NZUS99 KSGF 011759
HRRSGF

HOURLY WEATHER
NATIONAL WEATHER SERVICE SPRINGFIELD MO
1200 PM CST SUN MAR 01 2015

......SGF CWA......

CITY           SKY/WX    TMP DP  RH WIND       PRES   REMARKS
SPRINGFIELD    CLOUDY    30  26  85 N6        30.35F WCI  24
6HR MIN TEMP:  27; 6HR MAX TEMP:  30;

JOPLIN         CLOUDY    28  25  88 VRB7      30.40F WCI  21
6HR MIN TEMP:  26; 6HR MAX TEMP:  28; 6HR PCP: TRACE;

WEST PLAINS    CLOUDY    34  30  85 NW5       30.34F WCI  30
6HR MIN TEMP:  30; 6HR MAX TEMP:  34; 6HR PCP: TRACE;

ROLLA          CLOUDY    27  25  92 NW5       30.34F FOG     WCI  22
6HR MIN TEMP:  25; 6HR MAX TEMP:  27;

OSAGE BEACH    CLOUDY    28  25  86 W6        30.39S WCI  22
BRANSON        CLOUDY    32  30  93 CALM      30.36F FOG

......SURROUNDING SGF CWA......

CITY           SKY/WX    TMP DP  RH WIND       PRES   REMARKS
CHANUTE        PTSUNNY   30  22  72 VRB3      30.41F
PARSONS        CLOUDY    31  23  72 NW6       30.43S WCI  25
COFFEYVILLE    CLOUDY    30  23  75 N5        30.43S WCI  25
EMPORIA        PTSUNNY   27  20  75 NW3       30.40S
SILOAM SPRINGS CLOUDY    30  25  80 CALM      30.38S
HARRISON AR    CLOUDY    32  31  96 NW6       30.34F FOG     WCI  26
NEAR YELLVILLE CLOUDY    34  28  80 CALM      30.37S

......KANSAS AND MISSOURI......

CITY           SKY/WX    TMP DP  RH WIND       PRES   REMARKS
KANSAS CTY INT PTSUNNY   29  21  72 N8        30.40R WCI  21
DOWNTOWN KC    CLOUDY    29  20  69 CALM      30.42R
COLUMBIA       CLOUDY    28  22  78 N5        30.39S WCI  23
SEDALIA        CLOUDY    28  21  75 NW6       30.41S WCI  22
ST JOSEPH      CLOUDY    28  20  71 N5        30.42F WCI  23
ST LOUIS       FRZ DRZL  30  25  81 NW5       30.38S WCI  25
SPIRIT OF STL  CLOUDY    29  25  85 NW3       30.38F
KIRKSVILLE     CLOUDY    27  19  72 CALM      30.39F
WICHITA        PTSUNNY   27  20  75 N9        30.40S WCI  18
TOPEKA         PTSUNNY   30  20  66 SW3       30.42F
OLATHE         PTSUNNY   28  20  71 NW6       30.39F WCI  22

......TENNESSEE......

CITY           SKY/WX    TMP DP  RH WIND       PRES   REMARKS
MEMPHIS        CLOUDY    42  40  92 CALM      30.35F FOG
NASHVILLE      LGT RAIN  50  47  89 S6        30.38F FOG

......ARKANSAS.......

CITY           SKY/WX    TMP DP  RH WIND       PRES   REMARKS
FAYETTEVILLE   CLOUDY    32  32 100 CALM      30.36S FOG
FT SMITH       CLOUDY    34  32  92 W3        30.39F FOG
LITTLE ROCK    LGT RAIN  38  34  85 CALM      30.38F FOG

......OKLAHOMA.......

CITY           SKY/WX    TMP DP  RH WIND       PRES   REMARKS
TULSA          CLOUDY    31  28  89 N6        30.41F WCI  25
PONCA CITY     CLOUDY    31  23  72 N3        30.42F
MCALESTER      CLOUDY    34  31  88 N9        30.39F WCI  27
OKLAHOMA CITY  FRZ DRZL  31  26  82 N8        30.39S WCI  23

......IOWA............

CITY           SKY/WX    TMP DP  RH WIND       PRES   REMARKS
DES MOINES     MOSUNNY   29  17  61 W10       30.37R WCI  20
QUAD CITIES    CLOUDY    25  15  66 W8        30.38S WCI  16

......ILLINOIS........

CITY           SKY/WX    TMP DP  RH WIND       PRES   REMARKS
QUINCY         CLOUDY    25  19  78 NW6       30.39S WCI  18
CHICAGO        CLOUDY    21  16  81 W7        30.34F HAZE    WCI  12



USA.gov is the U.S. government's official web portal to all federal, state and local government web resources and services.